Torna al catalogo

STARLINK-30204

AttivoComunicazioniVLEO
NORAD 57472·PAYLOAD·🇺🇸 United States

Lanciato Jul 28, 2023 da Cape Canaveral Space Force Station

Loading…

Prossimi Passaggi (prossime 24 ore)

TLE

AggiornatoSource: CelesTrak SupGP

Epoca: Sep 15, 2026, 02:20 UTC

1 57472C 23107R   26258.09770833  .00039396  00000+0  14265-2 0  2585
2 57472  43.0028 346.4205 0001392 270.3773 127.0924 15.27569022    17

Traccia STARLINK-30204 in tempo reale con AllMySat

Download on the App Store